This demonstration page uses our WeatherBlox Daily Observations layout. Learn more.

Left ArrowRight Arrow

47.50024, -111.30081

Hourly Observations for June 14, 2020

Temp ( °F °C ) Dew Point ( °F °C ) Humidity (%) Winds ( mph kmh ) Pressure ( in mb ) Visibility ( mi km ) Precip ( " mm )
12:53 am 00:53 Clear 49 9.4 35 1.7 59 59 WSW 13 20 29.69 1005 10 16 0.00 0.00
1:53 am 01:53 Clear 50 10 35 1.7 57 57 WNW 15 24 29.68 1005 10 16 0.00 0.00
2:53 am 02:53 Clear 48 8.9 34 1.1 58 58 WSW 13 20 29.71 1006 10 16 0.00 0.00
3:53 am 03:53 Clear 47 8.3 34 1.1 61 61 WSW 9 15 29.70 1006 10 16 0.00 0.00
4:53 am 04:53 Clear 45 7.2 34 1.1 66 66 WSW 6 9 29.73 1007 10 16 0.00 0.00
5:53 am 05:53 Mostly Sunny 44 6.7 33 0.6 65 65 SW 12 19 29.75 1007 10 16 0.00 0.00
6:53 am 06:53 Sunny 47 8.3 32 0 56 56 SW 14 22 29.72 1007 10 16 0.00 0.00
7:53 am 07:53 Sunny 52 11.1 33 0.6 49 49 SW 23 37 29.72 1007 10 16 0.00 0.00
8:53 am 08:53 Partly Cloudy 54 12.2 34 1.1 47 47 SW 20 31 29.73 1007 10 16 0.00 0.00
9:53 am 09:53 Mostly Sunny 58 14.4 36 2.2 44 44 SW 25 41 29.71 1006 10 16 0.00 0.00
10:53 am 10:53 Partly Cloudy 56 13.3 36 2.2 47 47 SW 23 37 29.74 1007 10 16 0.00 0.00
11:53 am 11:53 Cloudy 53 11.7 35 1.7 51 51 SW 26 43 29.78 1008 10 16 0.00 0.00
12:53 pm 12:53 Mostly Cloudy 58 14.4 35 1.7 42 42 SSW 24 39 29.78 1009 10 16 0.00 0.00
1:53 pm 13:53 Sunny 61 16.1 35 1.7 38 38 SW 25 41 29.76 1008 10 16 0.00 0.00
2:53 pm 14:53 Sunny 62 16.7 33 0.6 34 34 SW 21 33 29.77 1008 10 16 0.00 0.00
3:53 pm 15:53 Sunny 65 18.3 29 -1.7 26 26 SW 29 46 29.77 1008 10 16 0.00 0.00
4:53 pm 16:53 Mostly Cloudy 60 15.6 28 -2.2 30 30 SW 31 50 29.80 1009 10 16 0.00 0.00
5:53 pm 17:53 Sunny 55 12.8 33 0.6 44 44 SW 31 50 29.84 1011 10 16 0.00 0.00
6:53 pm 18:53 Partly Cloudy 51 10.6 34 1.1 52 52 S 20 31 29.87 1012 10 16 0.00 0.00
7:53 pm 19:53 Sunny 52 11.1 36 2.2 55 55 S 15 24 29.85 1011 10 16 0.00 0.00
8:53 pm 20:53 Sunny 50 10 28 -2.2 43 43 SW 18 30 29.85 1011 10 16 0.00 0.00
9:53 pm 21:53 Clear 49 9.4 26 -3.3 41 41 SW 17 28 29.86 1011 10 16 0.00 0.00
10:53 pm 22:53 Clear 48 8.9 26 -3.3 42 42 SW 24 39 29.90 1013 10 16 0.00 0.00
11:53 pm 23:53 Clear 46 7.8 26 -3.3 46 46 SW 17 28 29.93 1013 10 16 0.00 0.00

Powered by AerisWeather